Retour au catalogue

SL-16 DEB

ActifLEO
NORAD 39301·DEBRIS·🇷🇺 Russia

Lancé Dec 25, 1992 depuis Baikonur Cosmodrome

Loading…

Prochains Passages (prochaines 24 heures)

TLE

FraisSource: Space-Track

Époque: Sep 14, 2026, 13:15 UTC

1 39301U 92093JS  26257.55252854 -.00000144  00000-0 -52284-4 0  9993
2 39301  70.8841 356.1512 0032734 160.3507 199.8883 14.11722064674146

Suivez SL-16 DEB en temps réel avec AllMySat

Download on the App Store